Latest Weather Observations for St Kilda Harbour RMYS

IDV60901

Issued at 12:41 pm EST Sunday 26 June 2016 (issued every 10 minutes, with the page automatically refreshed every 10 minutes)

About weather observations | Map of Melbourne area stations | Latest observations for Melbourne area | Other Formats
Station Details ID: 086220 Name: ST KILDA HARBOUR - RMYS Lat: -37.86 Lon: 144.96 Height: 6.4 m
Data from the previous 72 hours. | See also: Recent months for locations in Victoria
Date/Time
EST
Temp
°C
App
Temp
°C
Dew
Point
°C
Rel
Hum
%
Delta-T
°C
Wind Press
QNH
hPa
Press
MSL
hPa
Rain since
9am
mm
Dir  Spd
km/h
Gust
km/h
Spd
kts
Gust
kts
26/12:30pm - - - - - N 22 37 12 20 - - -
26/12:00pm - - - - - N 20 32 11 17 - - -
26/11:30am - - - - - N 17 26 9 14 - - -
26/11:00am - - - - - N 19 26 10 14 - - -
26/10:30am - - - - - N 15 20 8 11 - - -
26/10:00am - - - - - NNE 17 24 9 13 - - -
26/09:30am - - - - - NNE 17 24 9 13 - - -
26/09:00am - - - - - NNE 19 30 10 16 - - -
26/08:30am - - - - - NNE 15 20 8 11 - - -
26/08:00am - - - - - NNE 15 19 8 10 - - -
26/07:30am - - - - - NNE 19 22 10 12 - - -
26/07:00am - - - - - NNE 15 20 8 11 - - -
26/06:30am - - - - - NNE 15 19 8 10 - - -
26/06:00am - - - - - NNE 13 19 7 10 - - -
26/05:30am - - - - - NNE 15 20 8 11 - - -
26/05:00am - - - - - NNE 15 20 8 11 - - -
26/04:30am - - - - - NNE 15 20 8 11 - - -
26/04:00am - - - - - NNE 13 19 7 10 - - -
26/03:30am - - - - - NNE 11 15 6 8 - - -
26/03:00am - - - - - NNE 13 19 7 10 - - -
26/02:30am - - - - - NNE 13 17 7 9 - - -
26/02:00am - - - - - NNE 13 19 7 10 - - -
26/01:30am - - - - - NNE 11 17 6 9 - - -
26/01:00am - - - - - NNE 9 13 5 7 - - -
26/12:30am - - - - - NNE 7 9 4 5 - - -
26/12:00am - - - - - NNE 7 9 4 5 - - -
 
Date/Time
EST
Temp
°C
App
Temp
°C
Dew
Point
°C
Rel
Hum
%
Delta-T
°C
Wind Press
QNH
hPa
Press
MSL
hPa
Rain since
9am
mm
Dir  Spd
km/h
Gust
km/h
Spd
kts
Gust
kts
25/11:30pm - - - - - NNE 7 11 4 6 - - -
25/11:00pm - - - - - NNE 9 11 5 6 - - -
25/10:30pm - - - - - NNE 6 9 3 5 - - -
25/10:00pm - - - - - N 6 7 3 4 - - -
25/09:30pm - - - - - NNE 4 6 2 3 - - -
25/09:00pm - - - - - NNE 7 9 4 5 - - -
25/08:30pm - - - - - N 9 11 5 6 - - -
25/08:00pm - - - - - NNE 6 7 3 4 - - -
25/07:30pm - - - - - NE 7 9 4 5 - - -
25/07:00pm - - - - - NNE 6 7 3 4 - - -
25/06:30pm - - - - - NNE 4 4 2 2 - - -
25/06:00pm - - - - - NW 6 6 3 3 - - -
25/05:30pm - - - - - W 7 9 4 5 - - -
25/05:00pm - - - - - WSW 11 13 6 7 - - -
25/04:30pm - - - - - SW 19 20 10 11 - - -
25/04:00pm - - - - - WSW 17 20 9 11 - - -
25/03:30pm - - - - - SW 4 7 2 4 - - -
25/03:00pm - - - - - WSW 6 9 3 5 - - -
25/02:30pm - - - - - SW 7 9 4 5 - - -
25/02:00pm - - - - - SW 4 6 2 3 - - -
25/01:30pm - - - - - CALM 0 0 0 0 - - -
25/01:00pm - - - - - SSW 4 4 2 2 - - -
25/12:30pm - - - - - CALM 0 4 0 2 - - -
25/12:00pm - - - - - CALM 0 2 0 1 - - -
25/11:30am - - - - - NW 6 7 3 4 - - -
25/11:00am - - - - - NNW 6 9 3 5 - - -
25/10:30am - - - - - NNW 4 6 2 3 - - -
25/10:00am - - - - - NW 6 9 3 5 - - -
25/09:30am - - - - - WNW 13 17 7 9 - - -
25/09:00am - - - - - NW 11 17 6 9 - - -
25/08:30am - - - - - NNW 11 13 6 7 - - -
25/08:00am - - - - - WNW 11 15 6 8 - - -
25/07:30am - - - - - WNW 6 11 3 6 - - -
25/07:00am - - - - - NW 9 15 5 8 - - -
25/06:30am - - - - - WNW 13 17 7 9 - - -
25/06:00am - - - - - W 11 17 6 9 - - -
25/05:30am - - - - - W 9 13 5 7 - - -
25/05:00am - - - - - NW 11 19 6 10 - - -
25/04:30am - - - - - NW 6 17 3 9 - - -
25/04:00am - - - - - NE 7 11 4 6 - - -
25/03:30am - - - - - NNW 6 9 3 5 - - -
25/03:00am - - - - - W 20 30 11 16 - - -
25/02:30am - - - - - W 24 28 13 15 - - -
25/02:00am - - - - - W 26 32 14 17 - - -
25/01:30am - - - - - W 28 35 15 19 - - -
25/01:00am - - - - - W 28 33 15 18 - - -
25/12:30am - - - - - WSW 41 52 22 28 - - -
25/12:00am - - - - - W 32 41 17 22 - - -
 
Date/Time
EST
Temp
°C
App
Temp
°C
Dew
Point
°C
Rel
Hum
%
Delta-T
°C
Wind Press
QNH
hPa
Press
MSL
hPa
Rain since
9am
mm
Dir  Spd
km/h
Gust
km/h
Spd
kts
Gust
kts
24/11:30pm - - - - - W 28 33 15 18 - - -
24/11:00pm - - - - - W 26 33 14 18 - - -
24/10:30pm - - - - - W 20 28 11 15 - - -
24/10:00pm - - - - - W 30 35 16 19 - - -
24/09:30pm - - - - - W 30 37 16 20 - - -
24/09:00pm - - - - - W 32 37 17 20 - - -
24/08:30pm - - - - - WNW 26 30 14 16 - - -
24/08:00pm - - - - - W 28 37 15 20 - - -
24/07:30pm - - - - - WNW 28 33 15 18 - - -
24/07:00pm - - - - - WNW 30 39 16 21 - - -
24/06:30pm - - - - - W 33 41 18 22 - - -
24/06:00pm - - - - - W 32 41 17 22 - - -
24/05:30pm - - - - - W 32 41 17 22 - - -
24/05:00pm - - - - - W 30 39 16 21 - - -
24/04:30pm - - - - - W 35 43 19 23 - - -
24/04:00pm - - - - - WSW 35 46 19 25 - - -
24/03:50pm - - - - - WSW 44 59 24 32 - - -
24/03:41pm - - - - - WSW 57 76 31 41 - - -
24/03:34pm - - - - - W 50 76 27 41 - - -
24/03:31pm - - - - - W 43 69 23 37 - - -
24/03:30pm - - - - - W 41 57 22 31 - - -
24/03:00pm - - - - - W 39 50 21 27 - - -
24/02:30pm - - - - - W 37 44 20 24 - - -
24/02:07pm - - - - - W 48 69 26 37 - - -
24/02:00pm - - - - - WSW 57 72 31 39 - - -
24/01:55pm - - - - - WSW 63 82 34 44 - - -
24/01:47pm - - - - - WSW 65 80 35 43 - - -
24/01:36pm - - - - - WSW 50 72 27 39 - - -
24/01:30pm - - - - - WSW 44 54 24 29 - - -
24/01:00pm - - - - - W 32 39 17 21 - - -
24/12:30pm - - - - - W 35 46 19 25 - - -
24/12:00pm - - - - - W 35 43 19 23 - - -
24/11:30am - - - - - W 30 39 16 21 - - -
24/11:00am - - - - - WSW 52 61 28 33 - - -
24/10:30am - - - - - W 33 44 18 24 - - -
24/10:00am - - - - - W 28 39 15 21 - - -
24/09:30am - - - - - W 33 41 18 22 - - -
24/09:00am - - - - - WNW 24 33 13 18 - - -
24/08:30am - - - - - WNW 30 39 16 21 - - -
24/08:00am - - - - - WNW 30 35 16 19 - - -
24/07:30am - - - - - WNW 26 35 14 19 - - -
24/07:00am - - - - - NW 28 48 15 26 - - -
24/06:59am - - - - - NW 28 48 15 26 - - -
24/06:48am - - - - - WNW 26 39 14 21 - - -
24/06:30am - - - - - NW 13 20 7 11 - - -
24/06:00am - - - - - NNW 19 24 10 13 - - -
24/05:30am - - - - - NNW 20 30 11 16 - - -
24/05:00am - - - - - N 7 11 4 6 - - -
24/04:30am - - - - - NW 15 24 8 13 - - -
24/04:00am - - - - - NNW 19 24 10 13 - - -
24/03:30am - - - - - NNW 19 26 10 14 - - -
24/03:00am - - - - - NNW 22 28 12 15 - - -
24/02:30am - - - - - NNW 20 28 11 15 - - -
24/02:00am - - - - - NNW 20 28 11 15 - - -
24/01:30am - - - - - NNW 20 28 11 15 - - -
24/01:00am - - - - - NNW 17 24 9 13 - - -
24/12:30am - - - - - NW 15 20 8 11 - - -
24/12:00am - - - - - NNW 15 20 8 11 - - -
 
Date/Time
EST
Temp
°C
App
Temp
°C
Dew
Point
°C
Rel
Hum
%
Delta-T
°C
Wind Press
QNH
hPa
Press
MSL
hPa
Rain since
9am
mm
Dir  Spd
km/h
Gust
km/h
Spd
kts
Gust
kts
23/11:30pm - - - - - NW 13 17 7 9 - - -
23/11:00pm - - - - - NW 13 19 7 10 - - -
23/10:30pm - - - - - W 17 20 9 11 - - -
23/10:00pm - - - - - WNW 17 20 9 11 - - -
23/09:30pm - - - - - NW 17 22 9 12 - - -
23/09:00pm - - - - - NW 22 35 12 19 - - -
23/08:30pm - - - - - N 26 43 14 23 - - -
23/08:00pm - - - - - N 20 28 11 15 - - -
23/07:30pm - - - - - NW 19 24 10 13 - - -
23/07:00pm - - - - - W 22 30 12 16 - - -
23/06:30pm - - - - - WSW 28 37 15 20 - - -
23/06:00pm - - - - - WNW 32 39 17 21 - - -
23/05:51pm - - - - - WNW 35 43 19 23 - - -
23/05:30pm - - - - - W 46 61 25 33 - - -
23/05:16pm - - - - - W 50 69 27 37 - - -
23/05:08pm - - - - - NW 48 74 26 40 - - -
23/05:06pm - - - - - NW 44 74 24 40 - - -
23/05:00pm - - - - - NNW 43 61 23 33 - - -
23/04:30pm - - - - - N 39 61 21 33 - - -
23/04:00pm - - - - - N 37 56 20 30 - - -
23/03:30pm - - - - - N 46 67 25 36 - - -
23/03:05pm - - - - - NNW 44 67 24 36 - - -
23/03:00pm - - - - - N 41 54 22 29 - - -
23/02:30pm - - - - - N 44 63 24 34 - - -
23/02:03pm - - - - - N 41 59 22 32 - - -
23/02:00pm - - - - - N 43 59 23 32 - - -
23/01:31pm - - - - - N 44 67 24 36 - - -
23/01:30pm - - - - - N 44 61 24 33 - - -
23/01:00pm - - - - - NNW 48 76 26 41 - - -

Latest Capital City Observations: Canberra | Sydney | Melbourne | Brisbane | Adelaide | Perth | Hobart | Darwin

Other Formats:

Comma delimited format used in spreadsheet applications
http://www.bom.gov.au/fwo/IDV60901/IDV60901.95864.axf

JavaScript Object Notation format (JSON) in row-major order
http://www.bom.gov.au/fwo/IDV60901/IDV60901.95864.json